Date String (YYYY-MM-DD hh:mm:ss) UTC,Instrument flags,Ambient pressure (hPa),Sample flow (lpm),Bypass flow (lpm),Sample temperature (°C),Ambient temperature (°C),ASC tube jacket temperature (°C),LED temperature (°C),Box temperature (°C),Sample RH (%),Span deviation,Mass concentration (μg/m³),Mass concentration (μg/m³),Mass concentration (μg/m³)
DateTimeUTC,F1_M11,P_M11,Q1_M11,Q2_M11,T1_M11,T2_M11,T3_M11,T4_M11,T5_M11,U1_M11,ZSPAN_M11,X0_M11,X2_M11,X1_M11
2022-03-14 05:00:00,,0820.6,5.00,0.00,25.9,25.1,00.0,34.9,27.8,09.9,0000.0,0000.57,0000.32,0000.23
2022-03-14 05:01:00,,0820.6,5.00,0.00,26.0,25.1,00.0,34.9,27.8,09.9,0000.0,0000.57,0000.32,0000.23
2022-03-14 05:02:00,,0820.6,5.00,0.00,26.0,25.1,00.0,34.9,27.8,10.2,0000.0,0001.83,0000.34,0000.24
2022-03-14 05:03:00,,0820.6,5.00,0.00,26.0,25.1,00.0,34.9,27.8,10.5,0000.0,0001.98,0000.36,0000.25
2022-03-14 05:04:00,,0820.6,5.00,0.00,26.0,25.1,00.0,34.9,27.8,10.4,0000.0,0002.11,0000.43,0000.27
2022-03-14 05:05:00,,0820.6,4.98,0.00,26.0,25.1,00.0,34.9,27.8,10.7,0000.0,0002.27,0000.48,0000.28
2022-03-14 05:06:00,,0820.6,5.02,0.00,26.0,25.1,00.0,34.9,27.8,10.8,0000.0,0002.80,0000.52,0000.30
2022-03-14 05:07:00,,0820.6,4.99,0.00,26.0,25.1,00.0,34.9,27.8,10.9,0000.0,0003.00,0000.56,0000.32
2022-03-14 05:08:00,,0820.6,5.00,0.00,26.0,25.1,00.0,34.9,27.8,10.9,0000.0,0003.13,0000.62,0000.35
2022-03-14 05:09:00,,0820.6,5.00,0.00,26.0,25.1,00.0,34.9,27.8,10.8,0000.0,0003.18,0000.66,0000.38
2022-03-14 05:10:00,,0820.6,5.00,0.00,26.0,25.1,00.0,34.9,27.8,10.6,0000.0,0003.23,0000.69,0000.40
2022-03-14 05:11:00,,0820.6,5.00,0.00,26.0,25.1,00.0,34.9,27.8,10.5,0000.0,0003.34,0000.75,0000.43
2022-03-14 05:12:00,,0820.7,5.00,0.00,26.0,25.1,00.0,34.9,27.8,10.2,0000.0,0003.46,0000.79,0000.44
2022-03-14 05:13:00,,0820.7,5.01,0.00,26.0,25.1,00.0,34.9,27.8,10.2,0000.0,0002.32,0000.82,0000.45
2022-03-14 05:14:00,,0820.7,5.00,0.00,26.0,25.1,00.0,34.9,27.8,09.8,0000.0,0002.39,0000.81,0000.45
2022-03-14 05:15:00,,0820.6,5.00,0.00,26.0,25.1,00.0,34.9,27.8,09.6,0000.0,0002.34,0000.77,0000.45
2022-03-14 05:16:00,,0820.7,5.00,0.00,26.0,25.1,00.0,34.9,27.8,09.7,0000.0,0002.23,0000.74,0000.45
2022-03-14 05:17:00,,0820.7,5.00,0.00,26.0,25.1,00.0,34.9,27.8,09.7,0000.0,0001.71,0000.72,0000.44
2022-03-14 05:18:00,,0820.7,5.00,0.00,26.0,25.1,00.0,34.9,27.8,10.1,0000.0,0001.84,0000.69,0000.43
2022-03-14 05:19:00,,0820.7,5.00,0.00,26.0,25.1,00.0,34.9,27.8,10.8,0000.0,0001.81,0000.64,0000.42
2022-03-14 05:20:00,,0820.7,5.00,0.00,26.0,25.1,00.0,34.9,27.8,10.9,0000.0,0001.73,0000.61,0000.42
2022-03-14 05:21:00,,0820.8,5.00,0.00,26.0,25.1,00.0,34.9,27.7,10.9,0000.0,0001.85,0000.64,0000.41
2022-03-14 05:22:00,,0820.8,5.00,0.00,25.9,25.1,00.0,34.9,27.7,10.8,0000.0,0001.83,0000.65,0000.41
2022-03-14 05:23:00,,0820.8,5.00,0.00,25.9,25.0,00.0,34.9,27.6,10.7,0000.0,0001.76,0000.63,0000.41
2022-03-14 05:24:00,,0820.7,5.00,0.00,25.8,25.0,00.0,34.9,27.6,10.8,0000.0,0001.56,0000.61,0000.41
2022-03-14 05:25:00,,0820.7,5.01,0.00,25.8,24.9,00.0,34.9,27.5,10.6,0000.0,0001.50,0000.61,0000.41
2022-03-14 05:26:00,,0820.7,4.99,0.00,25.8,24.9,00.0,34.9,27.5,10.6,0000.0,0001.56,0000.65,0000.42
2022-03-14 05:27:00,,0820.7,5.00,0.00,25.7,24.9,00.0,34.9,27.5,10.6,0000.0,0001.58,0000.66,0000.43
2022-03-14 05:28:00,,0820.7,5.00,0.00,25.7,24.8,00.0,34.8,27.5,10.5,0000.0,0001.67,0000.68,0000.45
2022-03-14 05:29:00,,0820.7,5.00,0.00,25.7,24.8,00.0,34.8,27.5,10.7,0000.0,0001.57,0000.73,0000.46
2022-03-14 05:30:00,,0820.7,5.01,0.00,25.7,24.8,00.0,34.8,27.5,10.9,0000.0,0001.47,0000.76,0000.47
2022-03-14 05:31:00,,0820.7,5.01,0.00,25.7,24.8,00.0,34.8,27.4,11.2,0000.0,0001.52,0000.78,0000.48
2022-03-14 05:32:00,,0820.7,4.99,0.00,25.6,24.7,00.0,34.8,27.4,11.2,0000.0,0001.42,0000.76,0000.48
2022-03-14 05:33:00,,0820.8,5.01,0.00,25.6,24.7,00.0,34.7,27.4,11.2,0000.0,0001.33,0000.72,0000.48
2022-03-14 05:34:00,,0820.8,4.99,0.00,25.6,24.7,00.0,34.7,27.4,11.2,0000.0,0001.34,0000.72,0000.48
2022-03-14 05:35:00,,0820.9,5.00,0.00,25.6,24.7,00.0,34.7,27.4,11.3,0000.0,0001.45,0000.76,0000.50
2022-03-14 05:36:00,,0820.9,5.00,0.00,25.6,24.7,00.0,34.7,27.4,11.3,0000.0,0001.56,0000.80,0000.51
2022-03-14 05:37:00,,0820.9,5.00,0.00,25.6,24.8,00.0,34.7,27.4,11.5,0000.0,0001.90,0000.82,0000.52
2022-03-14 05:38:00,,0820.8,5.00,0.00,25.6,24.8,00.0,34.7,27.4,11.6,0000.0,0001.97,0000.81,0000.53
2022-03-14 05:39:00,,0820.8,5.00,0.00,25.6,24.9,00.0,34.7,27.4,11.6,0000.0,0001.92,0000.83,0000.54
2022-03-14 05:40:00,,0820.8,5.01,0.00,25.7,24.9,00.0,34.7,27.5,11.6,0000.0,0002.15,0000.83,0000.56
2022-03-14 05:41:00,,0820.8,5.01,0.00,25.7,24.9,00.0,34.7,27.5,11.6,0000.0,0002.20,0000.84,0000.57
2022-03-14 05:42:00,,0820.8,4.98,0.00,25.7,24.9,00.0,34.7,27.5,11.6,0000.0,0002.26,0000.88,0000.58
2022-03-14 05:43:00,,0820.8,5.00,0.00,25.7,24.9,00.0,34.7,27.5,11.6,0000.0,0002.32,0000.91,0000.60
2022-03-14 05:44:00,,0820.9,5.01,0.00,25.7,24.9,00.0,34.7,27.5,11.5,0000.0,0002.33,0000.93,0000.61
2022-03-14 05:45:00,,0820.8,5.01,0.00,25.7,24.9,00.0,34.7,27.5,11.5,0000.0,0002.46,0000.97,0000.62
2022-03-14 05:46:00,,0820.8,4.98,0.00,25.7,24.9,00.0,34.7,27.5,11.4,0000.0,0002.56,0000.96,0000.62
2022-03-14 05:47:00,,0820.8,5.01,0.00,25.7,24.9,00.0,34.7,27.5,11.3,0000.0,0002.46,0000.94,0000.62
2022-03-14 05:48:00,,0820.8,5.00,0.00,25.7,25.0,00.0,34.7,27.5,11.2,0000.0,0002.11,0000.93,0000.62
2022-03-14 05:49:00,,0820.8,5.01,0.00,25.7,25.0,00.0,34.7,27.5,11.1,0000.0,0002.32,0000.94,0000.62
2022-03-14 05:50:00,,0820.8,4.98,0.00,25.7,25.0,00.0,34.7,27.5,10.9,0000.0,0002.53,0000.94,0000.61
2022-03-14 05:51:00,,0820.9,5.01,0.00,25.7,25.0,00.0,34.7,27.5,11.0,0000.0,0002.74,0000.91,0000.60
2022-03-14 05:52:00,,0820.8,5.01,0.00,25.7,25.0,00.0,34.7,27.5,11.2,0000.0,0002.65,0000.89,0000.58
2022-03-14 05:53:00,,0820.8,5.01,0.00,25.7,24.9,00.0,34.7,27.5,11.3,0000.0,0002.64,0000.85,0000.57
2022-03-14 05:54:00,,0820.8,4.98,0.00,25.7,24.9,00.0,34.7,27.5,11.3,0000.0,0002.61,0000.82,0000.55
2022-03-14 05:55:00,,0820.8,5.02,0.00,25.7,24.9,00.0,34.7,27.5,11.1,0000.0,0002.61,0000.81,0000.54
2022-03-14 05:56:00,,0820.8,5.01,0.00,25.7,24.9,00.0,34.7,27.5,11.1,0000.0,0003.36,0000.77,0000.54
2022-03-14 05:57:00,,0820.8,4.98,0.00,25.7,24.9,00.0,34.7,27.4,11.1,0000.0,0003.52,0000.78,0000.54
2022-03-14 05:58:00,,0820.8,5.01,0.00,25.7,24.9,00.0,34.7,27.4,11.1,0000.0,0003.62,0000.80,0000.53
2022-03-14 05:59:00,,0820.9,5.01,0.00,25.6,24.9,00.0,34.6,27.4,10.8,0000.0,0003.59,0000.79,0000.53
